KC3VCX Weather Reports


time (UTC)temp
C
wind
direction
speed
KPH
gust
KPH
rain 1hr
cm
rain 24hr
cm
rain mn
cm
humidity
%
barometer
mb
20260507211554 15 266 1.6 3.2 0.00 0.00 0.00 44 1011.8
20260507211050 15 292 4.8 4.8 0.00 0.00 0.00 41 1011.5
20260507210548 15 246 8.0 11.3 0.00 0.00 0.00 39 1011.5
20260507210044 15 306 11.3 14.5 0.00 0.00 0.00 40 1011.7
20260507205541 14 2 8.0 11.3 0.00 0.00 0.00 41 1011.8
20260507205037 14 263 3.2 3.2 0.00 0.00 0.00 41 1011.7
20260507204533 14 288 11.3 14.5 0.00 0.00 0.00 40 1011.7
20260507204031 15 234 6.4 6.4 0.00 0.00 0.00 40 1011.6
20260507203529 15 248 8.0 11.3 0.00 0.00 0.00 40 1011.5
20260507203026 15 314 4.8 4.8 0.00 0.00 0.00 42 1011.6
20260507202522 15 267 3.2 3.2 0.00 0.00 0.00 42 1011.5
20260507202018 15 302 12.9 14.5 0.00 0.00 0.00 41 1011.8
20260507201514 14 345 6.4 9.7 0.00 0.00 0.00 42 1011.5
20260507201010 13 244 3.2 4.8 0.00 0.00 0.00 42 1012.0
20260507200506 13 311 4.8 6.4 0.00 0.00 0.00 43 1011.7
20260507200002 14 310 4.8 4.8 0.00 0.00 0.00 44 1012.0
20260507195459 13 278 6.4 9.7 0.00 0.00 0.00 44 1012.2
20260507194957 13 325 9.7 12.9 0.00 0.00 0.00 44 1012.2
20260507194453 14 352 3.2 4.8 0.00 0.00 0.00 46 1012.0
20260507193949 15 155 4.8 6.4 0.00 0.00 0.00 43 1012.0
20260507193446 14 301 4.8 6.4 0.00 0.00 0.00 44 1011.8
20260507192943 14 307 9.7 12.9 0.00 0.00 0.00 43 1011.9
20260507192439 15 32 3.2 3.2 0.00 0.00 0.00 44 1012.2
20260507191936 13 319 3.2 4.8 0.00 0.00 0.00 45 1012.2
20260507191432 13 318 17.7 24.1 0.00 0.00 0.00 44 1012.5
20260507190929 13 319 8.0 11.3 0.00 0.00 0.00 46 1012.4
20260507190427 13 238 8.0 12.9 0.00 0.00 0.00 45 1012.2
20260507185925 13 251 4.8 4.8 0.00 0.00 0.00 44 1012.3
20260507185422 13 232 14.5 16.1 0.00 0.00 0.00 45 1012.5
20260507184919 13 181 6.4 6.4 0.00 0.00 0.00 45 1012.5
20260507184417 13 266 12.9 16.1 0.00 0.00 0.00 45 1012.4
20260507183914 13 299 8.0 9.7 0.00 0.00 0.00 46 1012.6
20260507183411 15 269 6.4 9.7 0.00 0.00 0.00 43 1012.7
20260507182908 14 283 6.4 9.7 0.00 0.00 0.00 47 1012.7
20260507182404 14 73 1.6 1.6 0.00 0.00 0.00 49 1012.8
20260507181901 13 255 9.7 11.3 0.00 0.00 0.00 44 1012.4
20260507181356 13 352 4.8 6.4 0.00 0.00 0.00 44 1012.6
20260507180854 15 247 11.3 12.9 0.00 0.00 0.00 43 1012.7
20260507180350 15 210 6.4 6.4 0.00 0.00 0.00 43 1012.7
20260507175846 15 167 3.2 4.8 0.00 0.00 0.00 43 1012.5
20260507175343 15 234 8.0 11.3 0.00 0.00 0.00 42 1012.7
20260507174841 15 205 6.4 11.3 0.00 0.00 0.00 46 1012.8
20260507174338 14 183 6.4 6.4 0.00 0.00 0.00 44 1012.8
20260507173835 15 317 9.7 12.9 0.00 0.00 0.00 43 1012.8
20260507173332 14 224 8.0 9.7 0.00 0.00 0.00 43 1012.9
20260507172828 14 177 9.7 14.5 0.00 0.00 0.00 44 1012.9
20260507172325 14 270 9.7 11.3 0.00 0.00 0.00 45 1013.1
20260507171821 13 218 6.4 9.7 0.00 0.00 0.00 44 1013.3
20260507171318 12 223 3.2 4.8 0.00 0.00 0.00 49 1013.3
20260507170815 15 278 8.0 11.3 0.00 0.00 0.00 43 1013.5
20260507170312 15 99 1.6 3.2 0.00 0.00 0.00 44 1013.6
20260507165807 14 246 3.2 3.2 0.00 0.00 0.00 43 1013.4
20260507165306 14 334 20.9 25.7 0.00 0.00 0.00 44 1013.5
20260507164800 14 262 6.4 9.7 0.00 0.00 0.00 45 1013.6
20260507164257 14 130 3.2 3.2 0.00 0.00 0.00 45 1013.8
20260507163754 14 258 6.4 11.3 0.00 0.00 0.00 46 1013.7
20260507163252 13 52 3.2 4.8 0.00 0.00 0.00 47 1013.7
20260507162747 13 117 6.4 9.7 0.00 0.00 0.00 45 1013.7
20260507162243 13 70 14.5 20.9 0.00 0.00 0.00 44 1013.7
20260507161741 13 30 4.8 6.4 0.00 0.00 0.00 46 1013.8
20260507161237 12 283 9.7 11.3 0.00 0.00 0.00 49 1013.7
20260507160733 13 289 3.2 4.8 0.00 0.00 0.00 51 1014.0
20260507160230 13 288 9.7 12.9 0.00 0.00 0.00 48 1014.1
20260507155726 12 353 6.4 6.4 0.00 0.00 0.00 48 1013.9
20260507155222 12 43 0.0 0.0 0.00 0.00 0.00 48 1014.2
20260507154719 14 263 8.0 9.7 0.00 0.00 0.00 48 1014.1
20260507154216 12 95 1.6 1.6 0.00 0.00 0.00 53 1014.2
20260507153712 13 312 3.2 4.8 0.00 0.00 0.00 47 1014.2
20260507153209 12 334 4.8 6.4 0.00 0.00 0.00 50 1014.2
20260507152706 12 311 6.4 11.3 0.00 0.00 0.00 50 1014.3
20260507152202 12 291 8.0 11.3 0.00 0.00 0.00 48 1014.1
20260507151658 12 295 8.0 9.7 0.00 0.00 0.00 48 1014.4
20260507151154 13 244 3.2 6.4 0.00 0.00 0.00 49 1014.5
20260507150652 13 284 1.6 3.2 0.00 0.00 0.00 49 1014.5
20260507150148 12 32 9.7 14.5 0.00 0.00 0.00 49 1014.6
20260507145644 12 308 14.5 16.1 0.00 0.00 0.00 50 1014.9
20260507145141 13 183 4.8 6.4 0.00 0.00 0.00 52 1014.9
20260507144637 13 217 3.2 3.2 0.00 0.00 0.00 49 1015.1
20260507144136 12 96 1.6 1.6 0.00 0.00 0.00 51 1014.9
20260507143632 12 317 4.8 6.4 0.00 0.00 0.00 53 1014.7
20260507143130 12 87 1.6 3.2 0.00 0.00 0.00 54 1015.0
20260507142625 13 343 6.4 9.7 0.00 0.00 0.00 51 1015.1
20260507142122 11 194 4.8 6.4 0.00 0.00 0.00 53 1015.3
20260507141618 12 204 6.4 6.4 0.00 0.00 0.00 52 1015.3
20260507141115 12 223 4.8 6.4 0.00 0.00 0.00 55 1015.2
20260507140611 11 291 3.2 4.8 0.00 0.00 0.00 57 1015.4
20260507140109 11 18 1.6 1.6 0.00 0.00 0.00 58 1015.3
20260507135606 11 33 3.2 4.8 0.00 0.00 0.00 58 1015.6
20260507135103 11 334 0.0 1.6 0.00 0.00 0.00 60 1015.6
20260507134559 11 46 3.2 4.8 0.00 0.00 0.00 58 1015.6
20260507134055 12 38 1.6 3.2 0.00 0.00 0.00 58 1015.5
20260507133552 11 52 0.0 1.6 0.00 0.00 0.00 58 1015.6
20260507133050 11 167 3.2 3.2 0.00 0.00 0.00 59 1015.7
20260507132546 10 230 3.2 3.2 0.00 0.00 0.00 61 1015.7
20260507132043 10 315 3.2 3.2 0.00 0.00 0.00 61 1015.6
20260507131539 10 25 1.6 1.6 0.00 0.00 0.00 61 1015.6
20260507131037 10 118 0.0 1.6 0.00 0.00 0.00 61 1015.6
20260507130534 10 93 0.0 0.0 0.00 0.00 0.00 62 1015.5
20260507130032 10 144 1.6 3.2 0.00 0.00 0.00 63 1015.7
20260507125530 10 122 1.6 1.6 0.00 0.00 0.00 63 1015.6
20260507125027 9 188 1.6 3.2 0.00 0.00 0.00 63 1015.6
20260507124523 9 67 0.0 0.0 0.00 0.00 0.00 65 1015.8
20260507124021 8 206 4.8 4.8 0.00 0.00 0.00 65 1015.7
20260507123519 9 82 0.0 0.0 0.00 0.00 0.00 65 1015.9
20260507123016 9 134 1.6 3.2 0.00 0.00 0.00 65 1015.9
20260507122516 9 108 0.0 0.0 0.00 0.00 0.00 66 1015.7
20260507122012 8 109 0.0 1.6 0.00 0.00 0.00 68 1015.8
20260507121508 8 150 1.6 1.6 0.00 0.00 0.00 65 1015.6
20260507121004 8 134 1.6 3.2 0.00 0.00 0.00 67 1015.7
20260507120501 8 105 0.0 0.0 0.00 0.00 0.00 67 1015.8
20260507115957 7 105 0.0 0.0 0.00 0.00 0.00 72 1015.6
20260507115454 7 105 0.0 0.0 0.00 0.00 0.00 72 1015.6
20260507114949 7 84 0.0 0.0 0.00 0.00 0.00 72 1015.7
20260507114446 7 82 0.0 0.0 0.00 0.00 0.00 74 1015.6
20260507113943 7 82 0.0 0.0 0.00 0.00 0.00 72 1015.6
20260507113440 7 82 0.0 0.0 0.00 0.00 0.00 75 1015.5
20260507112937 6 82 0.0 0.0 0.00 0.00 0.00 76 1015.4
20260507112435 6 82 0.0 0.0 0.00 0.00 0.00 77 1015.2
20260507111931 5 82 0.0 0.0 0.00 0.00 0.00 81 1015.4
20260507111429 4 82 0.0 0.0 0.00 0.00 0.00 82 1015.3
20260507110925 3 63 0.0 0.0 0.00 0.00 0.00 85 1015.3
20260507110421 3 62 0.0 0.0 0.00 0.00 0.00 87 1015.3
20260507105918 2 62 0.0 0.0 0.00 0.00 0.00 88 1015.3
20260507105415 2 61 0.0 0.0 0.00 0.00 0.00 88 1015.3
20260507104911 2 61 0.0 0.0 0.00 0.00 0.00 88 1015.2
20260507104408 1 61 0.0 0.0 0.00 0.00 0.00 87 1015.0
20260507103904 1 61 0.0 0.0 0.00 0.00 0.00 87 1015.0
20260507103401 1 61 0.0 0.0 0.00 0.00 0.00 87 1015.2
20260507102857 2 61 0.0 0.0 0.00 0.00 0.00 87 1015.1
20260507102355 1 61 0.0 0.0 0.00 0.00 0.00 87 1014.9
20260507101851 1 61 0.0 0.0 0.00 0.00 0.00 87 1014.9
20260507101350 2 61 0.0 0.0 0.00 0.00 0.00 87 1015.0
20260507100848 2 61 0.0 0.0 0.00 0.00 0.00 87 1015.1
20260507100346 2 61 0.0 0.0 0.00 0.00 0.00 87 1015.1
20260507095843 2 61 0.0 0.0 0.00 0.00 0.00 87 1015.0
20260507095340 2 61 0.0 0.0 0.00 0.00 0.00 87 1015.1
20260507094837 2 61 0.0 0.0 0.00 0.00 0.00 87 1014.9
20260507094333 2 61 0.0 0.0 0.00 0.00 0.00 86 1014.9
20260507093831 2 61 0.0 0.0 0.00 0.00 0.00 86 1014.9
20260507093329 2 61 0.0 0.0 0.00 0.00 0.00 86 1015.0
20260507092827 2 61 0.0 0.0 0.00 0.00 0.00 86 1015.0
20260507092323 2 61 0.0 0.0 0.00 0.00 0.00 86 1014.9
20260507091819 2 61 0.0 0.0 0.00 0.00 0.00 85 1015.3
20260507091316 2 61 0.0 0.0 0.00 0.00 0.00 86 1015.2
20260507090812 2 61 0.0 0.0 0.00 0.00 0.00 86 1015.2
20260507090308 2 61 0.0 0.0 0.00 0.00 0.00 87 1015.2
20260507085805 2 61 0.0 0.0 0.00 0.00 0.00 87 1015.1
20260507085306 2 61 0.0 0.0 0.00 0.00 0.00 87 1015.0
20260507084800 2 61 0.0 0.0 0.00 0.00 0.00 86 1014.9
20260507084256 2 61 0.0 0.0 0.00 0.00 0.00 85 1015.0
20260507083754 2 61 0.0 0.0 0.00 0.00 0.00 85 1015.1
20260507083250 2 62 0.0 0.0 0.00 0.00 0.00 85 1015.0
20260507082746 2 61 0.0 0.0 0.00 0.00 0.00 85 1015.0
20260507082242 3 61 0.0 0.0 0.00 0.00 0.00 85 1015.2
20260507081739 3 62 0.0 0.0 0.00 0.00 0.00 84 1015.0
20260507081235 3 62 0.0 0.0 0.00 0.00 0.00 84 1015.0
20260507080732 3 61 0.0 0.0 0.00 0.00 0.00 84 1015.0
20260507080228 3 61 0.0 0.0 0.00 0.00 0.00 84 1014.9
20260507075723 3 61 0.0 0.0 0.00 0.00 0.00 83 1015.1
20260507075220 3 62 0.0 0.0 0.00 0.00 0.00 82 1015.1
20260507074716 3 62 0.0 0.0 0.00 0.00 0.00 82 1015.2
20260507074215 3 62 0.0 0.0 0.00 0.00 0.00 81 1015.2
20260507073710 3 62 0.0 0.0 0.00 0.00 0.00 80 1015.2
20260507073201 4 62 0.0 0.0 0.00 0.00 0.00 79 1015.3
20260507072659 4 62 0.0 0.0 0.00 0.00 0.00 79 1015.1
20260507072156 5 62 0.0 0.0 0.00 0.00 0.00 78 1015.0
20260507071654 4 61 0.0 0.0 0.00 0.00 0.00 77 1015.1
20260507071149 5 61 0.0 0.0 0.00 0.00 0.00 79 1015.2
20260507070647 5 62 0.0 0.0 0.00 0.00 0.00 79 1015.2
20260507070144 5 62 0.0 0.0 0.00 0.00 0.00 79 1015.1
20260507065640 5 63 0.0 0.0 0.00 0.00 0.00 78 1015.1
20260507065137 5 63 0.0 0.0 0.00 0.00 0.00 79 1015.2
20260507064635 5 63 0.0 0.0 0.00 0.00 0.00 79 1015.1
20260507064133 5 63 0.0 0.0 0.00 0.00 0.00 79 1015.2
20260507063631 6 63 0.0 0.0 0.00 0.00 0.00 78 1015.3
20260507063127 6 63 0.0 0.0 0.00 0.00 0.00 77 1015.4
20260507062624 6 63 0.0 0.0 0.00 0.00 0.00 76 1015.1
20260507062122 6 63 0.0 0.0 0.00 0.00 0.00 73 1015.2
20260507061619 6 63 0.0 0.0 0.00 0.00 0.00 70 1015.2
20260507061117 6 63 0.0 0.0 0.00 0.00 0.00 71 1015.3
20260507060615 7 63 0.0 0.0 0.00 0.00 0.00 73 1015.2
20260507060111 7 52 0.0 1.6 0.00 0.00 0.00 71 1015.3
20260507055607 7 71 0.0 0.0 0.00 0.00 0.00 68 1015.5
20260507055103 7 104 1.6 1.6 0.00 0.00 0.00 67 1015.7
20260507054559 7 57 0.0 0.0 0.00 0.00 0.00 65 1015.6
20260507054056 7 25 0.0 1.6 0.00 0.00 0.00 66 1015.8
20260507053554 7 278 1.6 3.2 0.00 0.00 0.00 66 1015.8
20260507053053 7 358 3.2 3.2 0.00 0.00 0.00 66 1015.8
20260507052550 7 338 1.6 1.6 0.00 0.00 0.00 67 1015.8
20260507052046 7 10 1.6 1.6 0.00 0.00 0.00 66 1016.0
20260507051544 7 44 0.0 0.0 0.00 0.00 0.00 67 1015.9
20260507051041 7 31 0.0 0.0 0.00 0.00 0.00 67 1015.8
20260507050537 7 32 0.0 0.0 0.00 0.00 0.00 70 1015.7
20260507050034 7 31 0.0 0.0 0.00 0.00 0.00 70 1015.9
20260507045530 7 23 0.0 0.0 0.00 0.00 0.00 70 1015.9
20260507045028 7 58 0.0 0.0 0.00 0.00 0.00 66 1015.8
20260507044524 7 33 0.0 0.0 0.00 0.00 0.00 70 1015.8
20260507044021 7 39 0.0 0.0 0.00 0.00 0.00 68 1015.8
20260507043517 7 56 0.0 0.0 0.00 0.00 0.00 76 1015.7
20260507043015 7 57 0.0 0.0 0.00 0.00 0.00 73 1015.7
20260507042510 7 57 0.0 0.0 0.00 0.00 0.00 73 1015.8
20260507042006 7 57 0.0 0.0 0.00 0.00 0.00 73 1015.8
20260507041503 7 61 0.0 0.0 0.00 0.00 0.00 72 1015.9
20260507041000 7 61 0.0 0.0 0.00 0.00 0.00 72 1015.9
20260507040455 7 61 0.0 0.0 0.00 0.00 0.00 72 1015.8
20260507035951 7 61 0.0 0.0 0.00 1.73 1.73 72 1015.7
20260507035448 7 61 0.0 0.0 0.00 1.73 1.73 76 1015.5
20260507034945 7 61 0.0 0.0 0.00 1.73 1.73 75 1015.7
20260507034442 7 61 0.0 0.0 0.00 1.73 1.73 69 1015.7
20260507033940 8 61 0.0 0.0 0.00 1.73 1.73 72 1015.7
20260507033437 7 61 0.0 0.0 0.00 1.73 1.73 71 1015.7
20260507032934 8 61 0.0 0.0 0.00 1.73 1.73 73 1015.4
20260507032432 8 62 0.0 0.0 0.00 1.73 1.73 66 1015.5
20260507031927 8 53 0.0 0.0 0.00 1.73 1.73 69 1015.6
20260507031426 8 39 0.0 0.0 0.00 1.73 1.73 68 1015.4
20260507030921 8 26 0.0 0.0 0.00 1.73 1.73 68 1015.4
20260507030418 8 24 0.0 0.0 0.00 1.73 1.73 69 1015.4
20260507025915 8 43 0.0 1.6 0.00 1.73 1.73 68 1015.2
20260507025413 8 93 0.0 0.0 0.00 1.73 1.73 70 1015.4
20260507024910 8 93 1.6 1.6 0.00 1.73 1.73 69 1015.3
20260507024407 8 44 0.0 1.6 0.00 1.73 1.73 72 1015.2
20260507023903 8 54 0.0 0.0 0.00 1.73 1.73 70 1015.2
20260507023400 8 55 0.0 0.0 0.00 1.73 1.73 69 1015.3
20260507022857 8 40 0.0 0.0 0.00 1.73 1.73 69 1015.2
20260507022354 8 39 0.0 0.0 0.00 1.73 1.73 67 1015.2
20260507021849 8 58 0.0 0.0 0.00 1.73 1.73 67 1015.2
20260507021345 8 52 0.0 0.0 0.00 1.73 1.73 65 1015.0
20260507020843 8 4 1.6 1.6 0.00 1.73 1.73 64 1014.7
20260507020339 8 48 0.0 0.0 0.00 1.73 1.73 65 1014.7
20260507015836 9 313 3.2 3.2 0.00 1.73 1.73 63 1014.6
20260507015334 9 281 3.2 3.2 0.00 1.73 1.73 64 1014.9
20260507014831 9 50 0.0 0.0 0.00 1.73 1.73 65 1014.4
20260507014327 9 96 0.0 0.0 0.00 1.73 1.73 65 1014.5
20260507013824 9 46 1.6 1.6 0.00 1.73 1.73 66 1014.3
20260507013321 9 34 0.0 1.6 0.00 1.73 1.73 66 1014.4
20260507012819 9 21 1.6 1.6 0.00 1.73 1.73 63 1014.5
20260507012314 9 87 0.0 0.0 0.00 1.73 1.73 64 1014.4
20260507011811 9 70 0.0 0.0 0.00 1.73 1.73 64 1014.5
20260507011308 9 321 1.6 1.6 0.00 1.73 1.73 65 1014.5
20260507010808 9 57 0.0 0.0 0.00 1.73 1.73 69 1014.9
20260507010304 9 51 0.0 0.0 0.00 1.73 1.73 71 1014.6
20260507005801 9 51 0.0 0.0 0.00 1.73 1.73 70 1014.7
20260507005257 10 64 0.0 0.0 0.00 1.73 1.73 68 1014.9
20260507004754 10 87 0.0 0.0 0.00 1.73 1.73 70 1015.1
20260507004252 10 70 0.0 0.0 0.00 1.73 1.73 68 1015.2
20260507003748 10 1 0.0 1.6 0.00 1.73 1.73 65 1014.7
20260507003243 10 26 0.0 0.0 0.00 1.73 1.73 65 1015.0
20260507002740 10 122 1.6 3.2 0.00 1.73 1.73 65 1015.3
20260507002236 10 26 0.0 0.0 0.00 1.73 1.73 66 1014.7
20260507001733 10 233 3.2 4.8 0.00 1.73 1.73 66 1014.9
20260507001230 10 33 0.0 0.0 0.00 1.73 1.73 67 1014.7
20260507000726 10 27 0.0 1.6 0.00 1.73 1.73 68 1014.6
20260507000222 10 25 0.0 1.6 0.00 1.73 1.73 68 1014.7
20260506235719 10 21 1.6 1.6 0.00 1.73 1.73 67 1014.7
20260506235214 10 344 1.6 3.2 0.00 1.73 1.73 68 1014.5
20260506234711 11 29 0.0 0.0 0.00 1.73 1.73 68 1014.5
20260506234209 11 42 0.0 1.6 0.00 1.73 1.73 67 1014.2
20260506233707 11 283 3.2 4.8 0.00 1.73 1.73 67 1014.2
20260506233203 11 20 0.0 0.0 0.00 1.73 1.73 69 1014.3
20260506232659 11 3 1.6 1.6 0.00 1.73 1.73 68 1014.2
20260506232154 11 333 1.6 1.6 0.00 1.73 1.73 68 1014.0
20260506231652 11 43 0.0 0.0 0.00 1.73 1.73 70 1014.0
20260506231150 11 341 1.6 1.6 0.00 1.73 1.73 70 1014.1
20260506230647 11 24 0.0 0.0 0.00 1.73 1.73 70 1013.8
20260506230143 11 23 0.0 0.0 0.00 1.73 1.73 68 1013.8
20260506225640 11 341 1.6 1.6 0.00 1.73 1.73 68 1013.7
20260506225137 11 294 3.2 3.2 0.00 1.73 1.73 69 1013.6
20260506224633 11 13 0.0 0.0 0.00 1.73 1.73 72 1013.5
20260506224130 11 18 0.0 1.6 0.00 1.73 1.73 70 1013.7
20260506223626 11 22 1.6 1.6 0.00 1.73 1.73 71 1013.5
20260506223122 11 32 1.6 1.6 0.00 1.73 1.73 70 1013.7
20260506222620 11 18 0.0 1.6 0.00 1.73 1.73 72 1013.5
20260506222116 11 2 1.6 3.2 0.00 1.73 1.73 71 1013.7
20260506221614 11 343 1.6 1.6 0.00 1.73 1.73 71 1013.7
20260506221111 11 248 1.6 1.6 0.00 1.73 1.73 70 1013.4
20260506220607 11 345 1.6 1.6 0.00 1.73 1.73 70 1013.6
20260506215600 11 10 0.0 1.6 0.00 1.73 1.73 70 1013.4
20260506215055 11 307 3.2 3.2 0.00 1.73 1.73 72 1013.5
20260506214552 11 4 1.6 1.6 0.00 1.73 1.73 74 1013.3
20260506214050 11 231 1.6 3.2 0.00 1.73 1.73 75 1013.5
20260506213548 11 354 1.6 1.6 0.00 1.73 1.73 74 1013.3
20260506213045 11 58 0.0 0.0 0.00 1.73 1.73 75 1013.0
20260506212541 11 46 0.0 0.0 0.00 1.73 1.73 75 1013.4
20260506212036 11 13 1.6 1.6 0.00 1.73 1.73 74 1013.1